Location: Castelbiague
(43.0361°N, 0.9246°E)
Time: 11:30:02
(UTC+00:00)

CENTAUR R/B - Pass Details

Date: 17 June 2021
Orbit: 740 x 1447 km, 63.4° (Epoch: 17 July)

Event Time Altitude Azimuth Distance (km) Brightness Sun altitude
Rises 21:07:36 0° 243° (WSW) 3,427 5.5 -12.9°
Reaches altitude 10° 21:10:05 10° 252° (WSW) 2,578 5.0 -13.2°
Maximum altitude 21:15:42 39° 320° (NW) 1,478 4.1 -13.9°
Drops below altitude 10° 21:22:21 10° 28° (NNE) 3,052 5.4 -14.6°
Sets 21:25:33 0° 36° (NE) 4,134 6.0 -14.9°
